カタログに戻る

STARLINK-3727

運用中通信VLEO
NORAD 52125·PAYLOAD·🇺🇸 United States

打ち上げ Mar 19, 2022 から Cape Canaveral Space Force Station

Loading…

次のパス (今後24時間)

TLE

最新Source: CelesTrak SupGP

元期: Sep 14, 2026, 22:09 UTC

1 52125C 22029AP  26257.92340278  .00034442  00000+0  10452-2 0  2574
2 52125  53.1577 295.5649 0000859  67.4751 174.6112 15.33530523    10

AllMySatでSTARLINK-3727をリアルタイム追跡

Download on the App Store